Menominee, MI

11:59 PM CDT on August 29, 2016 (GMT -0500)
Menominee-Marinette Twin County

Weather History for KMNM - November, 2011

Change the Weather History Date:

Sunday, November 27, 2011

  Actual Average Record
Temperature  
Mean Temperature 34 °F -  
Max Temperature 39 °F 39 °F 60 °F (1990)
Min Temperature 30 °F 24 °F -2 °F (2014)
Degree Days  
Heating Degree Days 30    
Moisture  
Dew Point 27 °F    
Average Humidity 78    
Maximum Humidity 93    
Minimum Humidity 69    
Precipitation  
Precipitation 0.07 in - - ()
Sea Level Pressure  
Sea Level Pressure 29.97 in    
Wind  
Wind Speed 9 mph (NNW)    
Max Wind Speed 17 mph    
Max Gust Speed 26 mph    
Visibility 10 miles    
Events      
Averages and records for this station are not official NWS values.
T = Trace of Precipitation, MM = Missing Value Source: NWS Daily Summary

Daily Weather History Graph

Daily Weather History Graph

Search for Another Location

Airport or City:

Trip Planner

Search our weather history database for the weather conditions in past years. The results will help you decide how hot, cold, wet, or windy it might be!

Date:

Astronomy

Nov. 27, 2011 Rise Set
Actual Time 7:03 AM CST 4:12 PM CST
Civil Twilight 6:31 AM CST 4:44 PM CST
Nautical Twilight 5:54 AM CST 5:21 PM CST
Astronomical Twilight 5:19 AM CST 5:56 PM CST
Moon 9:29 AM CST (11/27) 6:49 PM CST (11/27)
Length of Visible Light 10h 13m
Length of Day
9h 08m
Waxing Crescent, 8% of the Moon is Illuminated
Nov 27
Waxing Crescent
Dec 2
First Quarter
Dec 10
Full
Dec 17
Last Quarter
Dec 24
New

Hourly Weather History & Observations

Time (CST) Temp. Windchill Dew Point Humidity Pressure Visibility Wind Dir Wind Speed Gust Speed Precip Events Conditions
12:15 AM 39.2 °F 33.6 °F 37.4 °F 93% 29.80 in 10.0 mi NNW 8.1 mph - N/A   Partly Cloudy
12:35 AM 39.2 °F 32.0 °F 35.6 °F 87% 29.80 in 10.0 mi NNW 11.5 mph - 0.01 in   Partly Cloudy
12:55 AM 37.4 °F 30.8 °F 35.6 °F 93% 29.81 in 10.0 mi NNW 9.2 mph - 0.02 in   Clear
1:35 AM 37.4 °F 30.8 °F 33.8 °F 87% 29.82 in 10.0 mi NNW 9.2 mph - 0.04 in   Scattered Clouds
2:15 AM 35.6 °F 28.6 °F 33.8 °F 93% 29.83 in 10.0 mi NNW 9.2 mph - 0.01 in   Scattered Clouds
2:35 AM 35.6 °F 29.9 °F 33.8 °F 93% 29.82 in 10.0 mi NNW 6.9 mph - 0.01 in   Mostly Cloudy
2:55 AM 35.6 °F 30.7 °F 33.8 °F 93% 29.82 in 10.0 mi NNW 5.8 mph - 0.01 in   Overcast
3:15 AM 35.6 °F 29.2 °F 33.8 °F 93% 29.82 in 10.0 mi NNW 8.1 mph - N/A   Overcast
3:35 AM 35.6 °F 30.7 °F 33.8 °F 93% 29.83 in 10.0 mi NNW 5.8 mph - N/A   Overcast
4:35 AM 35.6 °F 28.6 °F 32.0 °F 87% 29.85 in 10.0 mi NNW 9.2 mph - N/A   Overcast
4:55 AM 35.6 °F 27.1 °F 30.2 °F 81% 29.86 in 10.0 mi NNW 12.7 mph 17.3 mph N/A   Mostly Cloudy
5:15 AM 35.6 °F 29.2 °F 30.2 °F 81% 29.86 in 10.0 mi NNW 8.1 mph - N/A   Mostly Cloudy
5:35 AM 33.8 °F 29.6 °F 28.4 °F 81% 29.88 in 10.0 mi NNW 4.6 mph - N/A   Overcast
5:55 AM 35.6 °F 31.7 °F 30.2 °F 81% 29.89 in 10.0 mi NNW 4.6 mph - N/A   Overcast
6:15 AM 35.6 °F 28.6 °F 30.2 °F 81% 29.88 in 10.0 mi North 9.2 mph - N/A   Overcast
6:35 AM 35.6 °F 28.0 °F 30.2 °F 81% 29.89 in 10.0 mi NNW 10.4 mph - N/A   Overcast
7:15 AM 33.8 °F 24.8 °F 28.4 °F 81% 29.92 in 10.0 mi NNW 12.7 mph - N/A   Overcast
7:55 AM 33.8 °F 24.3 °F 26.6 °F 75% 29.94 in 10.0 mi North 13.8 mph 20.7 mph N/A   Overcast
8:15 AM 33.8 °F 23.5 °F 26.6 °F 75% 29.95 in 10.0 mi NNW 16.1 mph 19.6 mph N/A   Overcast
8:35 AM 33.8 °F 23.2 °F 24.8 °F 70% 29.95 in 10.0 mi North 17.3 mph 26.5 mph N/A   Overcast
9:15 AM 33.8 °F 25.8 °F 24.8 °F 70% 29.97 in 10.0 mi NNW 10.4 mph 23.0 mph N/A   Overcast
9:35 AM 33.8 °F 24.8 °F 24.8 °F 70% 29.98 in 10.0 mi NNW 12.7 mph 16.1 mph N/A   Overcast
10:35 AM 33.8 °F 24.8 °F 24.8 °F 70% 29.99 in 10.0 mi NNW 12.7 mph 21.9 mph N/A   Overcast
10:55 AM 33.8 °F 23.5 °F 24.8 °F 70% 29.99 in 10.0 mi NNW 16.1 mph 24.2 mph N/A   Overcast
11:15 AM 33.8 °F 23.9 °F 24.8 °F 70% 29.99 in 10.0 mi North 15.0 mph 20.7 mph N/A   Overcast
11:55 AM 33.8 °F 26.4 °F 24.8 °F 70% 29.99 in 10.0 mi North 9.2 mph - N/A   Overcast
12:15 PM 33.8 °F 25.8 °F 24.8 °F 70% 29.99 in 10.0 mi North 10.4 mph 19.6 mph N/A   Overcast
12:35 PM 33.8 °F 27.7 °F 24.8 °F 70% 30.00 in 10.0 mi North 6.9 mph - N/A   Overcast
12:55 PM 33.8 °F 25.8 °F 24.8 °F 70% 30.00 in 10.0 mi North 10.4 mph - N/A   Overcast
1:15 PM 33.8 °F 26.4 °F 24.8 °F 70% 30.00 in 10.0 mi North 9.2 mph - N/A   Overcast
1:35 PM 33.8 °F 26.4 °F 24.8 °F 70% 30.00 in 10.0 mi North 9.2 mph 17.3 mph N/A   Overcast
1:55 PM 33.8 °F 25.8 °F 24.8 °F 70% 30.01 in 10.0 mi North 10.4 mph - N/A   Overcast
2:15 PM 33.8 °F 25.8 °F 24.8 °F 70% 30.01 in 10.0 mi NNW 10.4 mph - N/A   Overcast
2:35 PM 33.8 °F 24.8 °F 24.8 °F 70% 30.03 in 10.0 mi NNW 12.7 mph 17.3 mph N/A   Overcast
2:55 PM 32.0 °F 24.8 °F 24.8 °F 75% 30.04 in 10.0 mi North 8.1 mph 16.1 mph N/A   Overcast
3:15 PM 32.0 °F 23.6 °F 24.8 °F 75% 30.05 in 10.0 mi North 10.4 mph - N/A   Overcast
3:35 PM 32.0 °F 23.6 °F 23.0 °F 69% 30.06 in 10.0 mi North 10.4 mph - N/A   Overcast
4:35 PM 32.0 °F 23.0 °F 23.0 °F 69% 30.07 in 10.0 mi North 11.5 mph 16.1 mph N/A   Overcast
4:55 PM 30.2 °F 21.9 °F 23.0 °F 75% 30.08 in 10.0 mi North 9.2 mph 16.1 mph N/A   Overcast
5:15 PM 30.2 °F 21.9 °F 24.8 °F 80% 30.08 in 10.0 mi North 9.2 mph - N/A   Overcast
5:35 PM 30.2 °F 21.9 °F 23.0 °F 75% 30.09 in 10.0 mi North 9.2 mph - N/A   Overcast
5:55 PM 30.2 °F 23.4 °F 24.8 °F 80% 30.09 in 10.0 mi North 6.9 mph - N/A   Overcast
6:15 PM 30.2 °F 22.6 °F 23.0 °F 75% 30.10 in 10.0 mi North 8.1 mph - N/A   Overcast
6:35 PM 30.2 °F 23.4 °F 24.8 °F 80% 30.10 in 10.0 mi North 6.9 mph - N/A   Overcast
6:55 PM 30.2 °F 23.4 °F 23.0 °F 75% 30.10 in 10.0 mi NNW 6.9 mph - N/A   Overcast
7:15 PM 30.2 °F 20.8 °F 24.8 °F 80% 30.11 in 10.0 mi North 11.5 mph 16.1 mph N/A   Overcast
7:35 PM 30.2 °F 24.3 °F 24.8 °F 80% 30.11 in 10.0 mi NNW 5.8 mph - N/A   Overcast
8:15 PM 30.2 °F 21.9 °F 21.2 °F 69% 30.12 in 10.0 mi North 9.2 mph - N/A   Overcast
8:35 PM 30.2 °F 22.6 °F 21.2 °F 69% 30.13 in 10.0 mi North 8.1 mph - N/A   Overcast
8:55 PM 30.2 °F 24.3 °F 23.0 °F 75% 30.13 in 10.0 mi NNW 5.8 mph - N/A   Overcast
9:15 PM 30.2 °F 25.4 °F 21.2 °F 69% 30.14 in 10.0 mi NNW 4.6 mph - N/A   Overcast
10:35 PM 30.2 °F 21.9 °F 21.2 °F 69% 30.14 in 10.0 mi NNE 9.2 mph - N/A   Overcast
10:55 PM 30.2 °F 23.4 °F 21.2 °F 69% 30.15 in 10.0 mi NNE 6.9 mph - N/A   Overcast
11:15 PM 30.2 °F 25.4 °F 21.2 °F 69% 30.15 in 10.0 mi North 4.6 mph - N/A   Overcast
11:35 PM 30.2 °F 25.4 °F 21.2 °F 69% 30.15 in 10.0 mi North 4.6 mph - N/A   Overcast
11:55 PM 30.2 °F 25.4 °F 21.2 °F 69% 30.15 in 10.0 mi NNW 4.6 mph - N/A   Overcast